Regional Weather Roundup
Issued by NWS

Home | Current Version | Previous Version | Text Only | Print | Product List | Glossary Off
Versions: 1 2 3 4 5 6 7 8 9 10 11 12 13 14 15 16 17 18 19 20 21 22 23 24 25 26 27

000
ASUS45 KSLC 291010
RWRUT

UTAH REGIONAL WEATHER ROUNDUP
NATIONAL WEATHER SERVICE SALT LAKE CITY UT
400 AM MDT MON MAY 29 2017

UTZ001>011-023>025-291100-

NORTHERN UTAH

CITY           SKY/WX    TMP DP  RH WIND       PRES   REMARKS
BRIGHAM CITY   CLEAR     52  40  62 NW3       30.15S
HILL AFB       CLEAR     55  36  48 SE16      30.15F
LOGAN          CLEAR     47  39  74 CALM      30.19R
OGDEN          CLEAR     53  38  56 S8        30.14S
SALT LAKE CITY CLEAR     59  40  49 S3        30.13S
TOOELE VALLEY  CLEAR     45  37  76 S6        30.15S
WENDOVER       NOT AVBL
HEBER CITY     CLEAR     39  34  81 CALM      30.22S
WEST JORDAN    CLEAR     51  42  69 CALM      30.15S

$$

UTZ011>015-024>027-291100-

CENTRAL/NORTHEAST UTAH

CITY           SKY/WX    TMP DP  RH WIND       PRES   REMARKS
PROVO AIRPORT  CLEAR     52  34  50 E5        30.16S
MOAB/CANYONLAN CLEAR     54  16  22 CALM      30.10S
DELTA          CLEAR     46  28  49 SE3       30.16R
PRICE          CLEAR     55  28  35 CALM      30.18F
ROOSEVELT      CLEAR     45  36  70 W8        30.21R
VERNAL         CLEAR     49  32  52 W5        30.20R

$$

UTZ013>016-019>022-027-291100-

SOUTHERN UTAH

CITY           SKY/WX    TMP DP  RH WIND       PRES   REMARKS
BRYCE CANYON   CLEAR     35  25  66 W7        30.29F WCI  29
CEDAR CITY     CLEAR     45  20  36 E3        30.17S
MILFORD        CLEAR     46  20  35 SW3       30.16S
ST GEORGE      SUNNY     66  25  21 SE9       30.00R
HANKSVILLE     CLEAR     48  10  21 E3        30.14R
BLANDING       CLEAR     53  18  24 N10       30.25S

$$

REGIONAL REPORTS     COLORADO/ARIZONA

CITY           SKY/WX    TMP DP  RH WIND       PRES   REMARKS
CRAIG, CO      CLEAR     33  30  88 CALM      30.27S
GRAND JUNCTION CLEAR     53  28  38 CALM      30.16R
RIFLE, CO      CLEAR     45  28  51 CALM      30.23S
MONTROSE, CO   CLEAR     49  23  36 SE12      30.22S
CORTEZ, CO     CLEAR     37  28  70 E6        30.20S WCI  32
COLORADO CITY    N/A     70  23  17 E13       30.13S
PAGE, AZ       CLEAR     65  22  19 S3        30.07F
GRAND CANYON   MOCLDY    57  21  24 E3        30.21F
KINGMAN, AZ    CLEAR     63  19  18 MISG      29.96F
FLAGSTAFF, AZ  CLEAR     40  21  46 CALM      30.22F

$$

REGIONAL REPORTS    NEVADA/IDAHO/WYOMING

CITY           SKY/WX    TMP DP  RH WIND       PRES   REMARKS
LAS VEGAS, NV  CLEAR     74  16  11 S6        29.88S
ELY, NY        CLEAR     38  24  57 S12       30.24S WCI  30
ELKO, NV       CLEAR     47  37  68 CALM      30.18S
POCATELLO, ID  CLEAR     41  38  89 S3        30.19F
BURLEY, ID     CLEAR     47  43  86 CALM      30.15S
FORT BRIDGER,  SUNNY     43  32  65 NE5       30.34R
EVANSTON, WY   CLEAR     45  31  58 E8        30.29S
ROCK SPRINGS,  CLOUDY    44  36  73 E7        30.31F
KEMMERER, WY     N/A     41  34  75 N9        30.33S

$$




USA.gov is the U.S. government's official web portal to all federal, state and local government web resources and services.